EW5448 Weather Reports


Display with metric or nautical units.
time (UTC)temp
F
wind
direction
speed
MPH
gust
MPH
rain 1hr
in
rain 24hr
in
rain mn
in
humidity
%
barometer
mb
20260902180011 94 167 3.0 8.0 0.00 0.00 0.00 17 997.4
20260902174509 94 212 4.0 9.0 0.00 0.00 0.00 17 997.5
20260902173006 92 135 4.0 9.0 0.00 0.00 0.00 19 997.6
20260902171503 91 115 5.0 10.0 0.00 0.00 0.00 20 997.6
20260902170003 91 213 3.0 9.0 0.00 0.00 0.00 19 997.6
20260902164502 90 212 6.0 10.0 0.00 0.00 0.00 22 997.5
20260902163002 89 213 4.0 9.0 0.00 0.00 0.00 22 997.5
20260902161501 88 159 4.0 8.0 0.00 0.00 0.00 21 997.5
20260902160001 88 163 3.0 8.0 0.00 0.00 0.00 18 997.6
20260902154600 88 207 2.0 8.0 0.00 0.00 0.00 17 997.5
20260902153110 86 214 2.0 9.0 0.00 0.00 0.00 19 997.4
20260902151558 85 213 4.0 7.0 0.00 0.00 0.00 18 997.3
20260902150056 85 168 2.0 5.0 0.00 0.00 0.00 20 997.3
20260902144554 84 149 1.0 6.0 0.00 0.00 0.00 21 997.2
20260902143053 83 146 2.0 6.0 0.00 0.00 0.00 22 997.0
20260902141551 82 151 1.0 6.0 0.00 0.00 0.00 21 996.9
20260902140049 80 133 1.0 5.0 0.00 0.00 0.00 25 996.6
20260902134554 79 138 0.0 2.0 0.00 0.00 0.00 25 996.5
20260902133047 78 155 0.0 5.0 0.00 0.00 0.00 23 996.4
20260902131550 78 157 1.0 4.0 0.00 0.00 0.00 24 996.2
20260902130042 78 140 0.0 2.0 0.00 0.00 0.00 25 996.1
20260902124541 79 166 0.0 4.0 0.00 0.00 0.00 27 995.9
20260902123058 78 142 1.0 3.0 0.00 0.00 0.00 28 995.8
20260902121546 78 147 0.0 2.0 0.00 0.00 0.00 26 995.8
20260902120035 79 154 0.0 2.0 0.00 0.00 0.00 26 995.8
20260902114532 80 137 0.0 1.0 0.00 0.00 0.00 25 995.7
20260902113030 81 142 0.0 4.0 0.00 0.00 0.00 24 995.5
20260902111535 82 135 0.0 2.0 0.00 0.00 0.00 24 995.3
20260902110023 82 165 1.0 3.0 0.00 0.00 0.00 24 995.4
20260902104522 83 143 3.0 5.0 0.00 0.00 0.00 28 995.3
20260902103020 83 227 1.0 3.0 0.00 0.00 0.00 25 995.2
20260902101517 84 235 0.0 1.0 0.00 0.00 0.00 35 995.2
20260902100014 85 153 1.0 5.0 0.00 0.00 0.00 34 995.1
20260902094511 86 211 3.0 8.0 0.00 0.00 0.00 34 994.9
20260902093110 86 240 1.0 5.0 0.00 0.00 0.00 40 994.9
20260902091505 87 224 3.0 8.0 0.00 0.00 0.00 39 994.7
20260902090004 88 203 5.0 10.0 0.00 0.00 0.00 39 994.7
20260902084502 88 205 5.0 9.0 0.00 0.00 0.00 42 994.7
20260902083001 89 148 3.0 9.0 0.00 0.00 0.00 42 994.7
20260902081601 88 222 4.0 11.0 0.00 0.00 0.00 43 994.7
20260902080059 88 153 7.0 12.0 0.00 0.00 0.00 43 994.7
20260902074608 89 219 5.0 10.0 0.00 0.00 0.00 41 994.5
20260902073051 90 159 5.0 10.0 0.00 0.00 0.00 37 994.2
20260902071549 91 145 5.0 10.0 0.00 0.00 0.00 34 994.1
20260902070046 91 148 4.0 9.0 0.00 0.00 0.00 35 994.0
20260902064551 91 134 4.0 10.0 0.00 0.00 0.00 30 993.8
20260902063056 91 149 3.0 8.0 0.00 0.00 0.00 26 993.6
20260902061548 91 144 6.0 11.0 0.00 0.00 0.00 26 993.6
20260902060044 90 171 3.0 6.0 0.00 0.00 0.00 25 993.5
20260902054546 91 162 2.0 8.0 0.00 0.00 0.00 24 993.6
20260902053044 91 136 3.0 9.0 0.00 0.00 0.00 24 993.6
20260902051546 91 149 4.0 8.0 0.00 0.00 0.00 24 993.8
20260902050057 92 163 3.0 7.0 0.00 0.00 0.00 23 993.8
20260902044542 93 98 5.0 8.0 0.00 0.00 0.00 23 993.8
20260902043046 93 136 2.0 7.0 0.00 0.00 0.00 23 993.8
20260902041540 94 169 5.0 10.0 0.00 0.00 0.00 22 993.6
20260902040041 94 208 3.0 9.0 0.00 0.00 0.00 21 993.4
20260902034540 94 192 5.0 10.0 0.00 0.00 0.00 21 993.3
20260902033039 94 168 4.0 10.0 0.00 0.00 0.00 21 993.1
20260902031538 95 217 5.0 10.0 0.00 0.00 0.00 20 992.8
20260902030038 96 182 6.0 12.0 0.00 0.00 0.00 19 992.5
20260902024551 96 208 6.0 11.0 0.00 0.00 0.00 20 992.3
20260902023037 97 215 6.0 12.0 0.00 0.00 0.00 20 992.2
20260902021536 98 185 6.0 13.0 0.00 0.00 0.00 19 992.0
20260902020036 99 209 7.0 14.0 0.00 0.00 0.00 18 991.9
20260902014535 100 209 9.0 19.0 0.00 0.00 0.00 18 991.9
20260902013039 101 220 10.0 15.0 0.00 0.00 0.00 18 991.8
20260902011535 102 216 9.0 20.0 0.00 0.00 0.00 19 991.9
20260902010031 102 213 8.0 21.0 0.00 0.00 0.00 19 992.0
20260902004530 103 162 11.0 16.0 0.00 0.00 0.00 18 992.1
20260902003031 104 227 8.0 15.0 0.00 0.00 0.00 18 992.1
20260902001527 104 202 8.0 18.0 0.00 0.00 0.00 18 992.2
20260902000026 103 143 12.0 21.0 0.00 0.00 0.00 19 992.3
20260901234524 103 120 9.0 19.0 0.00 0.00 0.00 23 992.3
20260901233022 103 227 10.0 18.0 0.00 0.00 0.00 21 992.6
20260901231524 103 158 11.0 24.0 0.00 0.00 0.00 23 992.7
20260901230017 100 170 10.0 24.0 0.00 0.00 0.00 31 992.8
20260901224515 100 157 11.0 20.0 0.00 0.00 0.00 32 993.0
20260901223013 102 161 9.0 20.0 0.00 0.00 0.00 29 993.1
20260901221508 102 161 8.0 18.0 0.00 0.00 0.00 28 993.3
20260901220006 101 165 10.0 20.0 0.00 0.00 0.00 30 993.5
20260901214504 101 161 10.0 20.0 0.00 0.00 0.00 30 993.9
20260901213001 101 123 12.0 24.0 0.00 0.00 0.00 31 994.0
20260901211557 101 138 8.0 18.0 0.00 0.00 0.00 32 994.2
20260901210053 101 159 9.0 18.0 0.00 0.00 0.00 32 994.5
20260901204549 101 159 10.0 23.0 0.00 0.00 0.00 31 994.7
20260901203047 100 133 9.0 19.0 0.00 0.00 0.00 33 995.0
20260901201549 99 138 9.0 18.0 0.00 0.00 0.00 34 995.2
20260901200036 99 151 10.0 22.0 0.00 0.00 0.00 33 995.5
20260901194535 98 111 7.0 19.0 0.00 0.00 0.00 35 995.7
20260901193035 97 154 10.0 22.0 0.00 0.00 0.00 38 996.0
20260901191526 97 160 8.0 18.0 0.00 0.00 0.00 38 996.3
20260901190025 97 136 3.0 16.0 0.00 0.00 0.00 38 996.3
20260901184537 96 142 9.0 16.0 0.00 0.00 0.00 39 996.5
20260901183021 95 164 9.0 15.0 0.00 0.00 0.00 40 996.6
20260901181530 94 129 8.0 18.0 0.00 0.00 0.00 41 996.6